User: anonymous   Login
Location: Unspecified
(54.1780°N, 0.0000°E)
Time: 22:59:26
(UTC+00:00)
Language:

Explorer 11/Cluster Stage 4 - Orbit

View from above orbital plane
View from above orbital plane
View from above satellite
View from above satellite

Ground track
Ground track

The orbit data is extracted from the following two-line orbital elements,

1   107U 61013A   19175.80549953 +.00000386 +00000-0 +34387-4 0  9991
2   107 028.7880 046.7196 0547251 058.7204 306.5794 14.08788626915601
Epoch (UTC): 24 June 2019 19:19:55
Eccentricity: 0.0547251
inclination: 28.7880°
perigee height: 467 km
apogee height: 1260 km
right ascension of ascending node: 46.7196°
argument of perigee: 58.7204°
revolutions per day: 14.08788626
mean anomaly at epoch: 306.5794°
orbit number at epoch: 91560

The dashed part of the orbit path shows where the satellite is in the earth's shadow,  

DLR